Regional Weather Roundup
Issued by NWS

Home | Current Version | Previous Version | Text Only | Print | Product List | Glossary On
Versions: 1 2 3 4 5 6 7 8 9 10 11 12 13 14 15 16 17 18 19 20 21 22 23 24 25 26 27
000
ASUS42 KKEY 301710
RWRKEY

FLORIDA REGIONAL WEATHER ROUNDUP FOR THE FLORIDA KEYS
NATIONAL WEATHER SERVICE KEY WEST FLORIDA
100 PM EDT SAT APR 30 2016

...SOUTH FLORIDA AND THE KEYS...

CITY           SKY/WX    TMP DP  RH WIND       PRES   REMARKS
FORT MYERS     CLOUDY    84  66  54 E12       29.95F
SW REGIONAL AP MOSUNNY   84  65  52 E13       29.95F
NAPLES         CLOUDY    85  64  49 E12       29.94F
MIAMI          CLOUDY    82  63  52 SE17G23   29.98F
WEST KENDALL     N/A    N/A N/A N/A MISG      29.97F
HOMESTEAD      CLOUDY    82  65  58 E14G22    29.97F
MARATHON       CLOUDY    83  66  56 E14G20    29.96F
BOCA CHICA NAS CLOUDY    82  66  58 E17       29.95F
KEY WEST INTL  CLOUDY    81  68  64 E15       29.96S

...INTERNATIONAL WEATHER...

CITY           SKY/WX    TMP DP  RH WIND       PRES   REMARKS
NASSAU BAHAMAS MOSUNNY   81  70  69 N12       30.00
CANCUN MEXICO  PTSUNNY   84  79  84 SE18      29.84R HX  96
COZUMEL MEXICO PTSUNNY   82  75  78 SE23      29.83F

ADJACENT COASTAL WATERS...

STATION/POSITION TIME  SKY/WX   TEMP    WIND        PRES    WAVE
                                AIR SEA DIR/SP/G            HT/PER
                 (UTC)          (F)     (DEG/KT/KT) (MB)    (FT/S)
PULASKI SHOAL LI 1700            79     120/ 10/ 11 1014.2F
SAND KEY         1650            78     120/ 17/ 20 1014.7F
SOMBRERO KEY     NOT AVBL
LONG KEY         1700            78 81   80/ 15/ 17 1015.2F
MOLASSES REEF    1700            77 81  100/ 17/ 18 1014.8F
FOWEY ROCKS      NOT AVBL

$$




USA.gov is the U.S. government's official web portal to all federal, state and local government web resources and services.